Location: Chippewa Lake
(41.0698°N, 81.9010°W)
Time: 21:05:46
(UTC+00:00)

NOSS 3-4 (A) - Pass Details

Date: 09 May 2021
Orbit: 872 x 1340 km, 63.4° (Epoch: 06 May)

Event Time Altitude Azimuth Distance (km) Brightness Sun altitude
Rises 04:47:21 0° 321° (NW) 3,884 7.5 -30.9°
Reaches altitude 10° 04:49:57 10° 317° (NW) 2,990 6.7 -31.0°
Enters shadow 04:56:43 55° 248° (WSW) 1,427 4.1 -31.2°
